English version Home page |
Updated on February 17, 2021 |
プロフィール
|
軌道要素Epoch 2004 July 14.0 TT = JDT 2453200.5 T 2004 June 25.94676 TT Veres q 3.2406345 (2000.0) P Q n 0.05803161 Peri. 312.96230 -0.06191780 -0.99259193 a 6.6073348 Node 140.22647 +0.95669027 -0.08887253 e 0.5095398 Incl. 9.40416 +0.28444669 +0.08284284 P 17.0 From 144 observations 2003 Nov. 19-2020 Dec. 1, mean residual 0".5.
|
光度変化m1 = 12.0 + 5 logΔ + 10.0 log r
|
軌道要素はM.P.E.C. 2020-X10に掲載されたものです。
|